Погода в Кезу

Россия / Удмуртская Республика     57°53′43″N   53°42′42″E
темп.,
°C
ветер,
м/с
пор.,
м/с
влажн.,
%
обл.,
%
осадки,
мм/ч
давл.,
гПа
погр.,
м
25 января, пн
пн2501:00−2ююз2398100 0.0 1023119
04:00+1ююз2699100 0.3 1023272
07:00+1юз4999100 0.1 1023358
10:00+1юз411100100 0.3 1024395
13:00+1юз411100100 0.1 1024404
16:00+1юз51198100 0.3 1025478
19:00−1юз51097100 0.5 1026519
22:00−3юз51196100 1.4 1026509
26 января, вт
вт2601:00−3юз4994100 0.3 1027597
04:00−3юз4992100 0.3 1027626
07:00−4ююз4893100 0.1 1027572
10:00−6ююз41094100 0.1 1026476
13:00−4ююз4993100 0.1 1026570
16:00−3ююз4994100 0.1 1025638
19:00−3юз4993100 0.1 1025601
22:00−3ююз4994100 0.2 1024551
27 января, ср
ср2701:00−4ююз4994100 0.1 1025551
04:00−4ююз4995100 0.3 1024526
07:00−4ююз4994100 0.1 1024651
10:00−5ююз41093100 0.3 1024514
13:00−5ю5993100 0.1 1024499
16:00−5ююз41093100 0.3 1023638
19:00−6ююз51193100 0.1 1023463
22:00−5ююз51193100 0.3 1022477
28 января, чт
чт2801:00−6ююз51293100 0.1 1022463
04:00−8ююз51192100 0.1 1021414
07:00−7ююз51390100 0.0 1021441
10:00−7ююз51490100 0.0 1020455
13:00−5ююз51288100 0.0 1020481
16:00−5ююз51290100 0.0 1019482
19:00−6ююз41192100 0.0 1019431
22:00−6ююз31193100 0.0 1019362
29 января, пт
пт2901:00−8ююз3995100 0.0 1020280
04:00−9ю2696100 0.0 1019192
07:00−11ююв239699 0.0 101981
10:00−9ююв379299 0.0 1019236
13:00−7юв3790100 0.0 1018266
16:00−7юв3892100 0.0 1016270
19:00−7юв3893100 0.0 1015276
22:00−7вюв2792100 0.0 1014176